Simultaneous Nadir Overpasses (SNOs) Predictions

Prediction of SNOs between NOAA-20 and NOAA-19 Satellite Orbit:

Table of predicted SNOs for the next 14.0 days since TLE Epoch: 7/26/2019
Index Date (NOAA-20) Time (NOAA-20) Lat,Lon (NOAA-20) SZA (NOAA-20 ) Date (NOAA-19) Time (NOAA-19) Lat,Lon (NOAA-19) SZA (NOAA-19 ) Distance(km) Time Diff (sec)
1 08/08/2019 18:51:24 79.95,-141.06 66.29 08/08/2019 18:50:23 79.96,-141.17 66.34 2.90 61
2 08/08/2019 19:42:09 -79.95, 26.17 113.69 08/08/2019 19:41:20 -79.98, 26.26 113.66 2.97 49
3 08/08/2019 20:32:55 79.98,-166.77 66.37 08/08/2019 20:32:24 79.96,-166.74 66.37 2.52 31
4 08/08/2019 21:23:39 -79.96, 0.75 113.66 08/08/2019 21:23:21 -79.97, 0.69 113.64 1.84 18
5 08/08/2019 22:14:24 79.95, 168.11 66.34 08/08/2019 22:14:24 79.98, 168.01 66.37 3.13 0
6 08/08/2019 23:05:10 -79.99, -24.96 113.58 08/08/2019 23:05:22 -79.96, -24.88 113.62 3.34 12
7 08/08/2019 23:55:55 79.99, 142.39 66.43 08/08/2019 23:56:25 79.97, 142.44 66.39 2.08 30
8 08/09/2019 00:46:39 -79.97, -50.08 113.61 08/09/2019 00:47:22 -79.98, -50.14 113.61 2.20 43
9 08/09/2019 01:37:25 79.99, 116.97 66.46 08/09/2019 01:38:26 79.97, 116.88 66.42 3.35 61




NCC Satellite Simultaneous Nadir Overpasses (SNOs) Prediction Service
